"startDT [UTC]","vpos","CH4 [ppm]","stdev(CH4) [ppm]","CO2 [ppm]","stdev(CO2) [ppm]","H2O_reported [%]","stdev(H2O_reported)","CavityPressure [torr]","CavityTemp [C]","OutletValve","CH4_dry [ppm]","CO2_dry [ppm]","DasTemp [C]","EtalonTemp [C]","WarmBoxTemp [C]","MPVPosition","T_ECpre [C]","T_EC1 [C]","T_EC2 [C]","p_inlet [hPa]","p_in [hPa]","p_out [hPa]","T_inlet [C]","RH_inlet [%]","dwpt_inlet [C]","T_vent [C]","RH_vent [%]","dwpt_vent [C]","flow_vent [l min-1]","flow_inlet [l min-1]","dwpt_sample [C]","T_room [C]"
2015-08-23 00:00:00,3.0,1.88176,0.02271,395.798,4.634,0.1946,0.3089,139.990,45.000,30852.57179,1.88806,396.630,35.313,45.068,45.000,0.00,0.10,-272.74,-272.80,-14,452,-941,25.5,22.7,2.6,25.3,23.3,2.9,5.73,1.89,3.4,29.3
2015-08-23 00:01:00,3.0,1.87571,0.00045,396.997,0.048,0.0326,0.0020,139.999,45.000,30817.47225,1.87626,397.154,35.283,45.068,45.000,0.00,0.10,-272.74,-272.80,-14,451,-941,25.5,22.6,2.6,25.3,23.2,2.8,5.73,2.03,3.4,29.3
2015-08-23 00:02:00,3.0,1.87563,0.00039,397.140,0.092,0.0288,0.0029,139.999,45.000,30813.04082,1.87619,397.273,35.253,45.068,45.000,0.00,0.10,-272.74,-272.79,-14,451,-941,25.5,22.7,2.6,25.3,23.3,2.9,5.73,2.02,3.4,29.3
2015-08-23 00:03:00,3.0,1.87564,0.00037,397.373,0.056,0.0248,0.0023,139.999,45.000,30807.39377,1.87609,397.489,35.250,45.068,45.001,0.00,0.10,-272.74,-272.81,-14,451,-941,25.5,22.8,2.7,25.3,23.3,2.9,5.73,1.84,3.4,29.3
2015-08-23 00:04:00,3.0,1.87555,0.00031,397.453,0.035,0.0195,0.0021,139.998,45.000,30805.34549,1.87592,397.546,35.250,45.068,45.001,0.00,0.10,-272.73,-272.81,-14,451,-941,25.5,22.6,2.6,25.3,23.3,2.8,5.73,1.76,3.4,29.3
2015-08-23 00:05:00,3.0,1.87566,0.00036,397.491,0.032,0.0152,0.0023,139.999,45.000,30802.23937,1.87595,397.564,35.251,45.068,45.001,0.00,0.10,-272.74,-272.79,-15,452,-941,25.5,22.7,2.6,25.3,23.2,2.8,5.73,1.90,3.4,29.3
2015-08-23 00:06:00,3.0,1.87569,0.00042,397.514,0.033,0.0117,0.0018,139.998,45.000,30800.07325,1.87588,397.569,35.251,45.068,45.000,0.00,0.10,-272.73,-272.79,-15,452,-941,25.5,22.7,2.6,25.4,23.3,2.9,5.73,2.05,3.4,29.3
2015-08-23 00:07:00,3.0,1.87567,0.00025,397.537,0.034,0.0099,0.0018,140.002,45.000,30799.90350,1.87586,397.584,35.254,45.068,45.000,0.00,0.10,-272.74,-272.81,-14,452,-941,25.5,22.7,2.6,25.3,23.2,2.8,5.73,1.98,3.4,29.3
2015-08-23 00:08:00,3.0,1.87599,0.00035,397.540,0.024,0.0081,0.0014,139.998,45.000,30797.02227,1.87613,397.579,35.250,45.068,45.000,0.00,0.10,-272.73,-272.80,-14,452,-941,25.5,22.8,2.7,25.3,23.4,3.0,5.73,1.79,3.4,29.3
2015-08-23 00:09:00,3.0,1.87604,0.00031,397.538,0.025,0.0073,0.0022,140.001,45.000,30796.46700,1.87615,397.573,35.250,45.068,45.000,0.00,0.10,-272.73,-272.79,-14,452,-942,25.5,22.7,2.6,25.3,23.2,2.9,5.73,1.78,3.4,29.3
2015-08-23 00:10:00,3.0,1.87603,0.00038,397.551,0.035,0.0062,0.0021,140.000,45.000,30796.19171,1.87616,397.581,35.259,45.068,45.000,0.00,0.10,-272.74,-272.81,-14,452,-942,25.5,22.8,2.7,25.4,23.4,3.0,5.73,1.96,3.4,29.4
2015-08-23 00:11:00,3.0,1.87610,0.00043,397.559,0.041,0.0056,0.0017,139.997,45.000,30795.81662,1.87619,397.585,35.254,45.068,45.000,0.00,0.10,-272.74,-272.79,-14,453,-942,25.5,22.5,2.6,25.4,23.2,2.8,5.73,2.05,3.4,29.4
2015-08-23 00:12:00,3.0,1.87606,0.00037,397.592,0.023,0.0048,0.0027,140.000,45.000,30797.57308,1.87615,397.615,35.267,45.068,45.000,0.00,0.10,-272.73,-272.81,-15,453,-942,25.5,22.6,2.6,25.4,23.1,2.8,5.73,1.94,3.4,29.4
2015-08-23 00:13:00,3.0,1.87609,0.00030,397.583,0.030,0.0034,0.0016,140.000,45.000,30797.01386,1.87615,397.600,35.269,45.067,45.000,0.00,0.10,-272.73,-272.81,-15,453,-942,25.5,22.6,2.6,25.4,23.2,2.9,5.73,1.78,3.4,29.4
2015-08-23 00:14:00,3.0,1.87600,0.00030,397.594,0.029,0.0041,0.0019,139.999,45.000,30798.27625,1.87608,397.613,35.262,45.067,45.000,0.00,0.10,-272.73,-272.80,-14,453,-942,25.5,22.6,2.6,25.4,23.2,2.9,5.73,1.80,3.4,29.4
2015-08-23 00:15:00,3.0,1.87584,0.00047,397.609,0.032,0.0031,0.0021,140.001,45.000,30800.99855,1.87589,397.623,35.279,45.067,45.000,0.00,0.10,-272.75,-272.79,-14,453,-942,25.5,22.6,2.6,25.4,23.2,2.9,5.73,1.98,3.4,29.4
2015-08-23 00:16:00,3.0,1.87604,0.00034,397.599,0.037,0.0031,0.0019,140.002,45.000,30800.97166,1.87611,397.615,35.272,45.067,45.000,0.00,0.10,-272.72,-272.77,-14,454,-942,25.5,22.5,2.5,25.4,23.1,2.8,5.73,2.05,3.4,29.4
2015-08-23 00:17:00,3.0,1.87633,0.00037,397.610,0.044,0.0028,0.0018,139.998,45.000,30798.84622,1.87637,397.623,35.253,45.067,45.000,0.00,0.10,-272.73,-272.81,-14,454,-942,25.5,22.6,2.6,25.4,23.2,2.9,5.73,1.92,3.4,29.4
2015-08-23 00:18:00,3.0,1.87618,0.00045,397.607,0.041,0.0021,0.0018,139.999,45.000,30802.24526,1.87622,397.617,35.252,45.067,45.000,0.00,0.10,-272.73,-272.80,-14,454,-942,25.5,22.6,2.6,25.4,23.2,2.9,5.73,1.78,3.4,29.4
2015-08-23 00:19:00,3.0,1.87618,0.00037,397.604,0.026,0.0026,0.0017,139.999,45.000,30804.37237,1.87622,397.618,35.251,45.068,45.000,0.00,0.10,-272.73,-272.79,-15,454,-942,25.5,22.7,2.7,25.4,23.3,3.0,5.73,1.81,3.4,29.4
2015-08-23 00:20:00,0.0,1.93417,0.02117,386.748,4.355,0.7796,0.3028,140.015,45.000,31120.83847,1.94686,390.568,35.250,45.068,45.000,0.00,0.10,-272.74,-272.80,-15,500,-941,25.5,22.6,2.6,25.4,23.2,2.9,5.73,1.94,3.4,29.4
2015-08-23 00:21:00,0.0,1.94080,0.00044,384.537,0.023,0.9398,0.0037,139.999,45.000,31149.01938,1.95933,389.015,35.250,45.068,45.000,0.00,0.10,-272.74,-272.80,-16,501,-941,25.6,22.6,2.6,25.4,23.2,2.9,5.73,2.01,3.4,29.3
2015-08-23 00:22:00,0.0,1.94052,0.00035,384.465,0.042,0.9468,0.0040,140.001,45.000,31158.20492,1.95913,388.978,35.251,45.068,45.000,0.00,0.10,-272.73,-272.79,-16,501,-941,25.6,22.6,2.6,25.4,23.2,2.9,5.73,2.03,3.4,29.4
2015-08-23 00:23:00,0.0,1.94070,0.00039,384.479,0.037,0.9468,0.0032,139.999,45.000,31163.50252,1.95934,388.992,35.250,45.068,45.000,0.00,0.10,-272.74,-272.79,-16,502,-941,25.6,22.6,2.6,25.4,23.2,2.9,5.73,1.99,3.4,29.4
2015-08-23 00:24:00,0.0,1.94121,0.00043,384.351,0.052,0.9567,0.0021,140.000,45.000,31168.54441,1.96006,388.911,35.250,45.068,45.000,0.00,0.10,-272.74,-272.80,-16,502,-941,25.6,22.8,2.8,25.4,23.4,3.0,5.73,1.94,3.4,29.4
2015-08-23 00:25:00,0.0,1.94131,0.00053,384.424,0.036,0.9499,0.0033,140.001,45.000,31173.52782,1.95997,388.951,35.250,45.068,45.000,0.00,0.10,-272.73,-272.80,-15,502,-941,25.6,22.6,2.7,25.4,23.2,2.9,5.73,1.89,3.5,29.4
2015-08-23 00:26:00,0.0,1.94092,0.00040,384.436,0.046,0.9526,0.0034,140.001,45.000,31178.96479,1.95968,388.978,35.251,45.068,45.000,0.00,0.10,-272.72,-272.80,-15,502,-941,25.6,22.6,2.7,25.5,23.2,2.9,5.73,1.85,3.5,29.4
2015-08-23 00:27:00,0.0,1.94147,0.00043,384.341,0.032,0.9607,0.0028,140.000,45.000,31184.17849,1.96042,388.919,35.250,45.068,45.000,0.00,0.10,-272.73,-272.80,-15,502,-941,25.6,22.8,2.8,25.5,23.4,3.0,5.73,1.86,3.4,29.5
2015-08-23 00:28:00,0.0,1.94082,0.00033,384.403,0.058,0.9561,0.0044,140.000,45.000,31183.91113,1.95965,388.960,35.254,45.067,45.000,0.00,0.10,-272.72,-272.80,-15,502,-941,25.6,22.7,2.7,25.4,23.4,3.0,5.73,1.89,3.5,29.4
2015-08-23 00:29:00,0.0,1.94056,0.00040,384.401,0.022,0.9566,0.0019,140.001,45.000,31187.77457,1.95938,388.961,35.252,45.068,45.000,0.00,0.10,-272.73,-272.79,-15,502,-941,25.6,22.7,2.7,25.4,23.3,3.0,5.73,1.94,3.5,29.4
2015-08-23 00:30:00,0.0,1.94141,0.00047,384.361,0.065,0.9567,0.0041,140.002,45.000,31187.97005,1.96025,388.921,35.253,45.068,45.000,0.00,0.10,-272.74,-272.80,-15,502,-941,25.6,22.7,2.7,25.4,23.3,3.0,5.73,2.00,3.5,29.4
2015-08-23 00:31:00,0.0,1.94140,0.00060,384.394,0.049,0.9581,0.0026,140.002,45.000,31187.74752,1.96027,388.961,35.252,45.068,45.000,0.00,0.10,-272.74,-272.80,-15,502,-941,25.6,22.7,2.7,25.5,23.3,3.0,5.73,2.03,3.5,29.4
2015-08-23 00:32:00,0.0,1.94126,0.00035,384.382,0.066,0.9595,0.0034,139.998,45.000,31189.12026,1.96017,388.958,35.275,45.068,45.000,0.00,0.10,-272.73,-272.80,-15,502,-941,25.6,22.7,2.8,25.5,23.3,3.0,5.73,2.00,3.5,29.4
2015-08-23 00:33:00,0.0,1.94100,0.00034,384.346,0.053,0.9590,0.0030,139.997,45.000,31190.55504,1.95988,388.917,35.296,45.067,45.000,0.00,0.10,-272.73,-272.79,-16,502,-941,25.6,22.7,2.7,25.4,23.4,3.0,5.73,1.95,3.5,29.4
2015-08-23 00:34:00,0.0,1.94139,0.00030,384.355,0.060,0.9583,0.0032,139.998,45.000,31191.44800,1.96027,388.922,35.310,45.067,45.000,0.00,0.10,-272.74,-272.80,-15,502,-941,25.6,22.7,2.7,25.4,23.3,3.0,5.73,1.89,3.5,29.4
2015-08-23 00:35:00,0.0,1.94142,0.00041,384.335,0.054,0.9594,0.0024,139.998,45.000,31193.42712,1.96030,388.909,35.303,45.067,45.000,0.00,0.10,-272.74,-272.79,-16,502,-941,25.6,22.7,2.7,25.4,23.3,3.0,5.73,1.85,3.5,29.4
2015-08-23 00:36:00,0.0,1.94093,0.00047,384.333,0.049,0.9572,0.0034,140.000,45.000,31196.23438,1.95982,388.896,35.297,45.067,45.000,0.00,0.10,-272.74,-272.80,-16,502,-941,25.6,22.6,2.7,25.4,23.3,3.0,5.73,1.85,3.5,29.4
2015-08-23 00:37:00,0.0,1.94240,0.00077,384.088,0.096,0.9681,0.0050,140.002,45.000,31197.35499,1.96145,388.701,35.260,45.067,45.000,0.00,0.10,-272.73,-272.80,-16,502,-941,25.6,22.9,2.9,25.4,23.5,3.1,5.73,1.89,3.5,29.4
2015-08-23 00:38:00,0.0,1.94107,0.00055,384.300,0.062,0.9613,0.0052,140.001,45.000,31195.95141,1.96002,388.880,35.255,45.067,45.000,0.00,0.10,-272.73,-272.80,-16,502,-941,25.6,22.7,2.7,25.4,23.4,3.0,5.73,1.95,3.5,29.4
2015-08-23 00:39:00,0.0,1.94109,0.00041,384.330,0.036,0.9567,0.0029,139.999,45.000,31195.13182,1.95992,388.892,35.250,45.068,45.000,0.00,0.10,-272.73,-272.79,-16,502,-941,25.6,22.6,2.7,25.4,23.3,2.9,5.73,2.00,3.5,29.4
2015-08-23 00:40:00,0.0,1.94157,0.00036,384.253,0.104,0.9628,0.0055,140.000,45.000,31196.01799,1.96055,388.844,35.250,45.068,45.000,0.00,0.10,-272.73,-272.79,-16,502,-941,25.6,22.8,2.8,25.4,23.4,3.0,5.73,2.02,3.5,29.4
2015-08-23 00:41:00,0.0,1.94101,0.00044,384.204,0.094,0.9652,0.0050,140.001,45.000,31199.44203,1.96005,388.801,35.251,45.068,45.000,0.00,0.10,-272.74,-272.80,-16,502,-941,25.6,22.8,2.8,25.4,23.5,3.0,5.73,2.00,3.5,29.4
2015-08-23 00:42:00,0.0,1.94088,0.00046,384.293,0.033,0.9642,0.0023,139.998,45.000,31198.10492,1.95984,388.890,35.256,45.068,45.000,0.00,0.10,-272.73,-272.80,-16,502,-941,25.6,22.8,2.8,25.4,23.4,3.0,5.73,1.94,3.5,29.4
2015-08-23 00:43:00,0.0,1.94089,0.00045,384.227,0.049,0.9730,0.0030,139.997,45.000,31198.11343,1.96006,388.867,35.272,45.068,45.000,0.00,0.10,-272.73,-272.79,-15,502,-941,25.6,23.0,2.9,25.4,23.6,3.1,5.73,1.89,3.5,29.4
2015-08-23 00:44:00,0.0,1.94136,0.00058,384.205,0.073,0.9740,0.0047,139.999,45.000,31196.80479,1.96059,388.847,35.300,45.068,45.000,0.00,0.10,-272.73,-272.80,-15,502,-941,25.6,23.0,2.9,25.4,23.7,3.2,5.73,1.85,3.5,29.4
2015-08-23 00:45:00,0.0,1.94106,0.00042,384.213,0.047,0.9719,0.0047,139.998,45.000,31198.22048,1.96019,388.847,35.310,45.067,45.000,0.00,0.10,-272.73,-272.80,-15,502,-941,25.6,23.0,2.9,25.4,23.6,3.1,5.73,1.85,3.5,29.4
2015-08-23 00:46:00,0.0,1.94100,0.00032,384.261,0.026,0.9670,0.0040,140.001,45.000,31197.00540,1.96005,388.871,35.312,45.067,45.000,0.00,0.10,-272.73,-272.79,-15,502,-941,25.6,22.8,2.8,25.4,23.5,3.1,5.73,1.90,3.5,29.4
2015-08-23 00:47:00,0.0,1.94078,0.00043,384.295,0.044,0.9605,0.0033,139.998,45.000,31197.14531,1.95971,388.875,35.312,45.067,45.000,0.00,0.10,-272.74,-272.79,-15,502,-941,25.6,22.7,2.7,25.4,23.4,3.0,5.73,1.96,3.5,29.4
2015-08-23 00:48:00,0.0,1.94112,0.00033,384.271,0.047,0.9677,0.0029,139.999,45.000,31196.43767,1.96017,388.882,35.313,45.067,45.000,0.00,0.10,-272.74,-272.79,-15,502,-941,25.6,22.9,2.8,25.4,23.5,3.0,5.73,2.02,3.5,29.4
2015-08-23 00:49:00,0.0,1.94096,0.00037,384.196,0.063,0.9745,0.0039,139.998,45.000,31197.45049,1.96018,388.842,35.313,45.067,45.000,0.00,0.10,-272.74,-272.79,-15,502,-941,25.6,23.1,2.9,25.4,23.7,3.2,5.73,2.02,3.5,29.4
2015-08-23 00:50:00,0.0,1.94102,0.00039,384.245,0.032,0.9682,0.0018,139.999,45.000,31198.05822,1.96008,388.861,35.308,45.067,45.000,0.00,0.10,-272.73,-272.80,-15,502,-941,25.6,22.9,2.8,25.4,23.6,3.1,5.73,1.99,3.5,29.4
2015-08-23 00:51:00,0.0,1.94069,0.00041,384.245,0.043,0.9645,0.0059,139.998,45.000,31199.19458,1.95973,388.843,35.305,45.067,45.000,0.00,0.10,-272.73,-272.80,-16,502,-941,25.6,22.8,2.7,25.4,23.5,3.0,5.73,1.92,3.5,29.4
2015-08-23 00:52:00,0.0,1.94099,0.00033,384.246,0.037,0.9655,0.0029,140.000,45.000,31199.09185,1.95998,388.849,35.298,45.068,45.000,0.00,0.10,-272.73,-272.80,-15,502,-941,25.5,22.8,2.8,25.4,23.4,3.0,5.73,1.86,3.5,29.4
2015-08-23 00:53:00,0.0,1.94091,0.00032,384.219,0.047,0.9671,0.0035,140.002,45.000,31199.61342,1.95998,388.829,35.295,45.067,45.000,0.00,0.10,-272.73,-272.79,-16,502,-941,25.6,22.9,2.8,25.4,23.5,3.0,5.73,1.84,3.5,29.4
2015-08-23 00:54:00,0.0,1.94076,0.00034,384.079,0.063,0.9769,0.0043,139.999,45.000,31199.46114,1.96000,388.735,35.301,45.068,45.000,0.00,0.10,-272.73,-272.80,-16,502,-941,25.6,23.1,2.9,25.4,23.6,3.1,5.73,1.87,3.5,29.4
2015-08-23 00:55:00,0.0,1.94052,0.00035,384.164,0.052,0.9780,0.0028,140.001,45.000,31200.43962,1.95979,388.826,35.305,45.068,45.000,0.00,0.10,-272.74,-272.80,-16,502,-941,25.6,23.1,3.0,25.4,23.8,3.2,5.73,1.92,3.5,29.4
2015-08-23 00:56:00,0.0,1.94062,0.00044,384.151,0.054,0.9715,0.0036,140.000,45.000,31197.95651,1.95973,388.784,35.302,45.068,45.000,0.00,0.10,-272.73,-272.80,-16,502,-941,25.6,23.0,2.9,25.4,23.6,3.1,5.73,1.99,3.5,29.4
2015-08-23 00:57:00,0.0,1.94038,0.00049,384.090,0.054,0.9714,0.0048,140.002,45.000,31198.81236,1.95957,388.720,35.309,45.068,45.000,0.00,0.10,-272.73,-272.80,-16,502,-941,25.6,22.9,2.8,25.4,23.6,3.1,5.73,2.02,3.5,29.4
2015-08-23 00:58:00,0.0,1.94051,0.00038,384.068,0.065,0.9706,0.0037,140.000,45.000,31197.66489,1.95963,388.694,35.305,45.068,45.000,0.00,0.10,-272.74,-272.80,-16,502,-941,25.6,23.0,2.9,25.4,23.6,3.1,5.73,2.01,3.5,29.4
2015-08-23 00:59:00,0.0,1.94064,0.00038,384.050,0.048,0.9722,0.0038,140.001,45.000,31196.84131,1.95978,388.684,35.298,45.068,45.000,0.00,0.10,-272.73,-272.80,-16,502,-941,25.6,23.0,2.9,25.4,23.6,3.1,5.73,1.96,3.5,29.4
2015-08-23 01:00:00,0.0,1.94042,0.00041,384.023,0.057,0.9780,0.0051,140.002,45.000,31197.86578,1.95970,388.683,35.290,45.068,45.000,0.00,0.10,-272.73,-272.79,-16,502,-941,25.6,23.1,2.9,25.4,23.7,3.2,5.73,1.89,3.5,29.4
2015-08-23 01:01:00,0.0,1.94030,0.00037,384.079,0.028,0.9728,0.0031,139.999,45.000,31195.66522,1.95943,388.714,35.269,45.068,45.000,0.00,0.10,-272.74,-272.80,-16,502,-941,25.5,23.0,2.8,25.4,23.6,3.1,5.73,1.84,3.5,29.4
2015-08-23 01:02:00,0.0,1.93998,0.00038,384.035,0.045,0.9790,0.0059,139.997,45.000,31196.13384,1.95928,388.701,35.290,45.068,45.000,0.00,0.10,-272.73,-272.80,-15,502,-941,25.5,23.2,3.0,25.4,23.7,3.2,5.73,1.84,3.5,29.4
2015-08-23 01:03:00,0.0,1.94021,0.00039,384.071,0.036,0.9757,0.0054,140.000,45.000,31194.60537,1.95944,388.723,35.299,45.068,45.000,0.00,0.10,-272.73,-272.79,-15,502,-941,25.5,23.0,2.9,25.4,23.7,3.2,5.73,1.89,3.5,29.4
2015-08-23 01:04:00,0.0,1.94010,0.00038,384.092,0.051,0.9680,0.0030,139.997,45.000,31192.79845,1.95915,388.703,35.295,45.068,45.000,0.00,0.10,-272.74,-272.80,-15,502,-941,25.6,22.9,2.8,25.4,23.5,3.1,5.73,1.96,3.5,29.4
2015-08-23 01:05:00,0.0,1.94015,0.00050,383.984,0.074,0.9839,0.0071,139.999,45.000,31193.46784,1.95956,388.674,35.305,45.068,45.000,0.00,0.10,-272.73,-272.79,-15,502,-941,25.5,23.3,3.0,25.4,23.8,3.2,5.73,2.02,3.5,29.4
2015-08-23 01:06:00,0.0,1.94014,0.00033,384.077,0.056,0.9736,0.0055,139.997,45.000,31194.13215,1.95928,388.717,35.312,45.067,45.000,0.00,0.10,-272.73,-272.79,-15,502,-941,25.5,23.0,2.9,25.4,23.7,3.2,5.73,2.02,3.5,29.3
2015-08-23 01:07:00,0.0,1.94034,0.00043,383.980,0.082,0.9870,0.0081,139.998,45.000,31192.89175,1.95977,388.685,35.312,45.067,45.000,0.00,0.10,-272.73,-272.80,-15,502,-941,25.5,23.4,3.1,25.4,23.8,3.3,5.73,1.97,3.5,29.3
2015-08-23 01:08:00,0.0,1.94055,0.00042,383.967,0.035,0.9922,0.0049,140.001,45.000,31194.06264,1.96012,388.699,35.308,45.067,45.000,0.00,0.10,-272.74,-272.80,-16,502,-941,25.5,23.4,3.1,25.4,24.1,3.4,5.73,1.91,3.5,29.3
2015-08-23 01:09:00,0.0,1.94039,0.00029,384.035,0.039,0.9808,0.0036,139.997,45.000,31193.94274,1.95973,388.710,35.311,45.068,45.000,0.00,0.10,-272.73,-272.80,-16,502,-941,25.5,23.2,3.0,25.4,23.8,3.3,5.73,1.85,3.5,29.4
2015-08-23 01:10:00,0.0,1.94060,0.00043,384.035,0.055,0.9839,0.0032,139.998,45.000,31191.98963,1.95999,388.724,35.312,45.068,45.000,0.00,0.10,-272.73,-272.80,-16,502,-941,25.6,23.2,3.0,25.4,23.9,3.3,5.73,1.84,3.5,29.4
2015-08-23 01:11:00,0.0,1.94048,0.00050,384.022,0.041,0.9818,0.0033,140.000,45.000,31193.72111,1.95983,388.703,35.312,45.067,45.000,0.00,0.10,-272.74,-272.80,-16,502,-941,25.5,23.2,3.0,25.4,23.8,3.2,5.73,1.88,3.5,29.4
2015-08-23 01:12:00,0.0,1.94050,0.00030,384.013,0.053,0.9841,0.0030,139.999,45.000,31193.41874,1.95990,388.703,35.312,45.067,45.000,0.00,0.10,-272.74,-272.79,-16,502,-941,25.5,23.2,3.0,25.4,23.9,3.3,5.73,1.95,3.5,29.4
2015-08-23 01:13:00,0.0,1.94057,0.00038,384.001,0.034,0.9852,0.0028,139.998,45.000,31192.12255,1.95998,388.697,35.312,45.067,45.000,0.00,0.10,-272.74,-272.80,-16,502,-940,25.5,23.3,3.0,25.4,23.9,3.3,5.73,2.02,3.5,29.4
2015-08-23 01:14:00,0.0,1.94064,0.00031,383.926,0.051,0.9927,0.0038,139.998,45.000,31191.01880,1.96022,388.656,35.307,45.068,45.000,0.00,0.10,-272.73,-272.80,-16,502,-940,25.5,23.4,3.1,25.4,24.0,3.4,5.73,2.03,3.5,29.4
2015-08-23 01:15:00,0.0,1.94052,0.00043,383.969,0.042,0.9909,0.0024,139.997,45.000,31188.21751,1.96007,388.694,35.311,45.068,45.000,0.00,0.10,-272.73,-272.80,-16,502,-940,25.5,23.4,3.1,25.4,24.0,3.4,5.73,1.97,3.5,29.4
2015-08-23 01:16:00,0.0,1.94036,0.00045,383.953,0.039,0.9882,0.0051,139.997,45.000,31189.68066,1.95984,388.665,35.313,45.068,45.000,0.00,0.10,-272.73,-272.79,-15,502,-940,25.5,23.4,3.1,25.4,24.0,3.3,5.73,1.89,3.5,29.4
2015-08-23 01:17:00,0.0,1.93995,0.00037,383.901,0.054,0.9897,0.0027,139.998,45.000,31189.00539,1.95946,388.617,35.323,45.068,45.000,0.00,0.10,-272.73,-272.79,-15,502,-940,25.5,23.4,3.1,25.4,24.0,3.3,5.73,1.83,3.5,29.3
2015-08-23 01:18:00,0.0,1.93995,0.00034,383.912,0.036,0.9913,0.0039,139.998,45.000,31188.15129,1.95948,388.639,35.340,45.068,45.000,0.00,0.10,-272.73,-272.80,-15,502,-940,25.5,23.4,3.1,25.4,24.0,3.4,5.73,1.84,3.5,29.3
2015-08-23 01:19:00,0.0,1.93971,0.00036,383.868,0.047,0.9904,0.0034,139.996,45.000,31188.75858,1.95925,388.590,35.367,45.067,45.000,0.00,0.10,-272.73,-272.79,-15,502,-940,25.6,23.4,3.1,25.4,24.0,3.4,5.73,1.90,3.5,29.4
2015-08-23 01:20:00,0.0,1.94014,0.00035,383.801,0.070,0.9988,0.0043,139.999,45.000,31190.06785,1.95980,388.561,35.365,45.067,45.000,0.00,0.10,-272.73,-272.79,-15,502,-940,25.5,23.6,3.2,25.4,24.1,3.4,5.73,1.99,3.5,29.3
2015-08-23 01:21:00,0.0,1.93987,0.00033,383.722,0.036,1.0009,0.0029,140.001,45.000,31190.80883,1.95961,388.493,35.358,45.067,45.000,0.00,0.10,-272.74,-272.80,-15,502,-940,25.5,23.7,3.3,25.4,24.3,3.5,5.73,2.04,3.5,29.4
2015-08-23 01:22:00,0.0,1.93987,0.00054,383.745,0.057,0.9975,0.0051,140.001,45.000,31190.20585,1.95953,388.498,35.348,45.067,45.000,0.00,0.10,-272.73,-272.80,-16,502,-940,25.5,23.6,3.2,25.4,24.2,3.5,5.73,2.01,3.5,29.4
2015-08-23 01:23:00,0.0,1.93998,0.00033,383.712,0.085,1.0017,0.0070,139.999,45.000,31189.23302,1.95974,388.487,35.336,45.067,45.000,0.00,0.10,-272.72,-272.80,-16,502,-940,25.5,23.7,3.3,25.4,24.2,3.5,5.73,1.92,3.5,29.4
2015-08-23 01:24:00,0.0,1.93977,0.00035,383.720,0.089,0.9996,0.0051,140.001,45.000,31188.57849,1.95948,388.483,35.321,45.067,45.000,0.00,0.10,-272.73,-272.80,-16,502,-940,25.5,23.6,3.2,25.4,24.3,3.5,5.73,1.84,3.5,29.4
2015-08-23 01:25:00,0.0,1.93969,0.00023,383.763,0.051,0.9925,0.0015,140.002,45.000,31191.09465,1.95924,388.494,35.315,45.068,45.000,0.00,0.10,-272.73,-272.80,-16,502,-940,25.5,23.4,3.1,25.4,24.1,3.4,5.73,1.82,3.5,29.3
2015-08-23 01:26:00,0.0,1.94002,0.00051,383.771,0.032,0.9950,0.0034,140.000,45.000,31188.95605,1.95961,388.511,35.314,45.068,45.000,0.00,0.10,-272.74,-272.79,-16,502,-940,25.5,23.5,3.2,25.4,24.1,3.4,5.73,1.88,3.5,29.3
2015-08-23 01:27:00,0.0,1.93997,0.00039,383.687,0.067,0.9995,0.0038,139.999,45.000,31188.88424,1.95968,388.450,35.313,45.068,45.000,0.00,0.10,-272.74,-272.79,-16,502,-940,25.5,23.6,3.3,25.4,24.2,3.5,5.73,1.97,3.5,29.4
2015-08-23 01:28:00,0.0,1.93985,0.00046,383.612,0.052,1.0054,0.0041,140.001,45.000,31190.30335,1.95969,388.404,35.311,45.068,45.000,0.00,0.10,-272.74,-272.80,-16,502,-940,25.5,23.8,3.3,25.4,24.4,3.6,5.73,2.03,3.5,29.4
2015-08-23 01:29:00,0.0,1.94009,0.00041,383.626,0.045,1.0068,0.0035,140.001,45.000,31191.51687,1.95992,388.425,35.303,45.068,45.000,0.00,0.10,-272.73,-272.80,-16,502,-940,25.5,23.8,3.3,25.4,24.4,3.6,5.73,2.01,3.5,29.4
2015-08-23 01:30:00,0.0,1.93991,0.00035,383.650,0.036,1.0033,0.0018,139.999,45.000,31192.87868,1.95970,388.429,35.310,45.068,45.000,0.00,0.10,-272.73,-272.79,-15,502,-940,25.5,23.7,3.3,25.4,24.4,3.6,5.73,1.94,3.5,29.3
2015-08-23 01:31:00,0.0,1.94016,0.00041,383.640,0.057,1.0081,0.0033,139.999,45.000,31190.07309,1.96004,388.443,35.311,45.068,45.000,0.00,0.10,-272.74,-272.80,-15,502,-940,25.5,23.8,3.4,25.4,24.4,3.6,5.73,1.87,3.5,29.3
2015-08-23 01:32:00,0.0,1.93999,0.00048,383.651,0.047,0.9999,0.0035,140.000,45.000,31191.10592,1.95973,388.417,35.295,45.068,45.000,0.00,0.10,-272.73,-272.79,-16,502,-940,25.5,23.6,3.2,25.4,24.3,3.5,5.73,1.83,3.5,29.3
2015-08-23 01:33:00,0.0,1.93957,0.00051,383.701,0.035,0.9967,0.0040,140.000,45.000,31190.95158,1.95920,388.449,35.295,45.068,45.000,0.00,0.10,-272.73,-272.79,-16,502,-940,25.5,23.5,3.2,25.4,24.2,3.5,5.73,1.85,3.5,29.3
2015-08-23 01:34:00,0.0,1.93986,0.00043,383.676,0.042,1.0002,0.0026,139.997,45.000,31190.56225,1.95959,388.444,35.301,45.068,45.000,0.00,0.10,-272.74,-272.80,-16,502,-940,25.5,23.6,3.2,25.4,24.3,3.5,5.73,1.93,3.5,29.3
2015-08-23 01:35:00,0.0,1.93948,0.00033,383.695,0.038,0.9952,0.0023,140.001,45.000,31192.35337,1.95908,388.436,35.310,45.068,45.000,0.00,0.10,-272.74,-272.80,-16,502,-940,25.5,23.5,3.2,25.4,24.2,3.4,5.73,2.01,3.5,29.3
2015-08-23 01:36:00,0.0,1.93989,0.00039,383.611,0.050,1.0044,0.0040,140.002,45.000,31193.07337,1.95966,388.397,35.303,45.067,45.000,0.00,0.10,-272.73,-272.80,-16,502,-940,25.5,23.8,3.3,25.4,24.3,3.5,5.73,2.03,3.5,29.3
2015-08-23 01:37:00,0.0,1.94001,0.00042,383.590,0.069,1.0081,0.0038,140.002,45.000,31191.77591,1.95992,388.395,35.297,45.067,45.000,0.00,0.10,-272.73,-272.79,-16,502,-940,25.5,23.8,3.4,25.4,24.5,3.6,5.73,1.99,3.5,29.3
2015-08-23 01:38:00,0.0,1.93976,0.00040,383.645,0.033,0.9990,0.0039,139.998,45.000,31189.28119,1.95944,388.404,35.284,45.068,45.000,0.00,0.10,-272.73,-272.80,-16,502,-940,25.5,23.6,3.2,25.4,24.3,3.5,5.73,1.92,3.5,29.4
2015-08-23 01:39:00,0.0,1.94014,0.00037,383.641,0.030,1.0005,0.0029,139.997,45.000,31189.75019,1.95985,388.408,35.284,45.067,45.000,0.00,0.10,-272.74,-272.79,-16,502,-940,25.5,23.7,3.2,25.4,24.3,3.5,5.73,1.85,3.5,29.4
2015-08-23 01:40:00,0.0,1.94008,0.00039,383.627,0.030,1.0027,0.0048,140.000,45.000,31189.63664,1.95986,388.405,35.273,45.067,45.000,0.00,0.10,-272.73,-272.79,-16,502,-940,25.5,23.7,3.3,25.4,24.4,3.5,5.73,1.83,3.5,29.4
2015-08-23 01:41:00,0.0,1.94009,0.00042,383.598,0.047,1.0019,0.0030,140.001,45.000,31190.38974,1.95984,388.371,35.258,45.068,45.000,0.00,0.10,-272.74,-272.79,-16,502,-940,25.5,23.7,3.3,25.4,24.3,3.5,5.73,1.87,3.6,29.4
2015-08-23 01:42:00,0.0,1.93997,0.00043,383.584,0.055,1.0020,0.0040,139.998,45.000,31191.31329,1.95970,388.358,35.256,45.068,45.000,0.00,0.10,-272.75,-272.78,-16,502,-940,25.5,23.7,3.3,25.4,24.3,3.5,5.73,1.96,3.5,29.3
2015-08-23 01:43:00,0.0,1.93985,0.00036,383.626,0.049,1.0000,0.0061,139.998,45.000,31189.30537,1.95958,388.389,35.252,45.068,45.000,0.00,0.10,-272.74,-272.79,-16,502,-940,25.5,23.7,3.2,25.4,24.3,3.5,5.73,2.02,3.5,29.3
2015-08-23 01:44:00,0.0,1.93945,0.00034,383.636,0.027,1.0019,0.0045,139.997,45.000,31190.07633,1.95921,388.411,35.253,45.068,45.000,0.00,0.09,-272.71,-272.76,-15,502,-940,25.5,23.7,3.2,25.4,24.3,3.5,5.73,2.02,3.5,29.4
2015-08-23 01:45:00,0.0,1.93948,0.00046,383.600,0.037,1.0015,0.0034,139.998,45.000,31191.46955,1.95923,388.373,35.273,45.068,45.000,0.00,0.10,-272.75,-272.82,-15,502,-940,25.5,23.7,3.3,25.4,24.3,3.5,5.73,1.96,3.5,29.4
2015-08-23 01:46:00,0.0,1.93933,0.00041,383.615,0.047,1.0022,0.0034,139.997,45.000,31189.04046,1.95906,388.389,35.303,45.067,45.000,0.00,0.10,-272.75,-272.81,-15,502,-940,25.5,23.7,3.3,25.4,24.3,3.5,5.73,1.89,3.5,29.3